Wind_Speed
16 16 16 16 17 16 16 18 18 17 17 17 16 15 16 18 19 19 18 18 18 18 19 19 20 19 19 18 19 18 18 18 17 16 15 14 13 12 11 11 11 10 9
15 15 15 16 16 16 16 17 17 17 18 18 17 17 16 18 20 20 21 20 19 20 20 20 21 21 20 20 20 20 20 20 19 18 17 16 15 14 13 13 12 11 10
15 16 16 16 16 16 17 18 18 18 18 18 18 18 18 18 19 21 21 22 21 20 21 21 22 22 22 22 23 22 22 21 21 20 19 18 17 16 15 15 14 13 12
16 16 16 16 16 17 18 18 19 19 19 19 18 18 19 19 20 21 22 23 22 22 23 23 23 24 24 25 25 24 24 24 23 23 22 21 20 18 17 16 16 15 14
16 16 17 17 17 17 18 19 19 19 19 19 19 19 20 21 22 22 22 23 24 24 24 25 24 25 26 27 27 27 26 26 26 25 24 23 22 21 20 19 18 17 16
15 16 16 17 17 17 18 19 19 20 20 20 20 20 21 21 22 23 24 25 25 25 25 26 26 26 27 28 29 29 29 28 28 27 27 26 25 24 23 22 20 19 18
14 15 15 16 17 17 18 19 19 20 21 22 22 22 22 22 23 24 24 25 25 26 25 26 27 28 28 29 29 30 31 31 30 29 29 29 28 27 25 24 23 21 20
14 14 15 16 16 17 17 18 19 19 20 21 22 22 23 24 24 24 25 26 27 27 27 28 28 29 30 31 31 31 31 33 32 32 31 31 30 29 28 27 26 24 23
13 13 14 14 15 15 16 17 18 19 20 20 21 22 23 24 26 26 26 26 27 28 29 29 30 31 32 33 34 33 33 34 34 35 35 34 32 32 31 29 28 27 26
12 13 13 14 14 15 16 17 18 19 20 21 22 23 24 25 26 27 27 28 28 29 30 30 31 32 33 33 34 35 35 35 36 37 37 37 35 34 33 32 31 29 28
12 12 13 14 15 16 16 17 18 19 20 21 22 23 24 25 27 28 28 29 29 30 32 32 33 33 33 35 35 35 36 37 37 38 38 38 38 37 36 35 34 33 31
12 13 14 14 15 16 17 18 19 20 21 22 23 24 25 26 27 28 29 30 31 31 32 34 35 35 35 36 37 37 38 39 39 40 40 40 40 40 39 38 37 36 35
13 14 15 16 17 18 19 20 21 21 22 23 24 25 26 26 27 28 29 31 32 33 33 35 36 37 37 38 38 39 39 39 40 41 42 42 41 42 41 41 40 38 38
14 16 17 18 19 20 21 21 22 23 24 24 25 26 27 27 28 29 30 31 32 34 35 36 37 37 39 40 40 40 40 40 40 41 43 44 44 43 43 42 42 41 40
16 17 18 20 21 22 22 23 24 24 25 25 26 27 27 28 28 29 30 31 32 34 36 37 38 39 40 41 41 42 41 41 42 41 43 44 45 45 44 44 43 43 42
17 19 20 21 22 23 23 24 24 25 25 26 26 27 28 28 29 30 30 31 32 33 35 37 39 40 41 42 43 43 44 43 44 43 43 44 46 46 45 45 45 44 44
19 20 21 22 23 24 24 25 26 26 26 27 27 28 28 29 30 30 30 31 32 33 34 36 39 41 42 42 44 44 45 46 46 46 46 46 46 47 47 47 47 46 45
20 22 23 24 25 25 26 27 28 27 28 28 28 28 29 29 30 30 31 31 32 33 34 35 38 40 41 43 43 44 45 46 46 47 48 48 48 48 47 48 48 47 46
22 23 24 25 26 27 27 28 29 29 29 29 29 29 29 29 30 31 31 32 32 32 33 34 36 38 40 42 43 44 45 46 47 48 48 49 49 49 48 48 49 48 47
23 25 26 27 27 28 29 30 30 30 30 30 31 30 30 30 31 31 31 31 32 33 33 34 36 38 40 41 43 44 46 47 47 49 49 50 50 50 50 50 50 49 49
24 26 27 28 29 29 30 31 31 31 31 32 31 31 31 31 31 31 31 32 32 33 34 34 35 37 39 41 42 44 45 46 48 49 50 50 51 51 51 51 51 50 50
25 27 28 29 30 30 31 32 32 32 32 32 32 32 32 31 31 31 31 31 32 33 33 34 35 36 38 40 42 43 44 45 47 49 50 50 51 52 52 52 51 51 51
27 28 29 30 31 32 32 33 33 33 33 33 33 33 33 32 32 32 32 32 32 33 33 34 34 36 37 39 41 42 43 45 46 48 50 50 51 52 52 52 52 52 52
28 29 30 31 32 33 33 34 34 34 34 34 34 34 34 34 33 33 32 32 33 33 33 33 33 35 37 38 39 41 42 44 45 47 49 50 51 52 53 53 53 53 52
30 31 31 32 33 34 34 35 35 35 35 35 35 35 35 34 34 34 33 32 32 33 33 33 33 33 35 37 38 39 41 43 44 46 48 49 50 51 52 52 53 53 53
30 31 32 33 34 35 36 36 36 36 36 37 37 36 35 34 34 34 34 33 33 33 33 32 32 32 33 35 37 38 40 41 43 45 47 49 50 51 51 51 52 53 53
Wind_Direction
288 291 285 282 283 285 279 277 276 277 272 270 268 266 260 254 248 247 249 248 246 244 243 241 235 231 228 225 223 221 218 215 213 211 208 207 206 206 204 203 201 197 195
283 285 287 284 284 283 281 277 277 278 274 271 269 265 261 256 251 250 250 250 248 245 244 243 238 232 228 226 224 222 221 219 218 216 214 213 212 211 210 211 208 204 202
285 287 286 286 286 282 278 276 277 277 275 273 268 265 264 259 254 252 250 250 249 248 247 244 240 236 231 227 225 223 223 222 221 220 218 217 216 215 215 215 214 211 208
287 289 287 289 289 284 278 276 276 275 274 272 269 266 264 260 257 255 252 250 250 250 248 245 241 237 232 230 227 225 224 224 224 223 221 220 220 220 219 217 217 216 214
286 289 289 289 288 285 281 279 277 275 274 273 272 270 266 262 259 256 254 253 252 251 249 245 242 239 236 233 231 229 227 226 224 224 224 222 222 222 222 220 220 220 220
289 290 290 290 288 284 281 280 279 277 274 273 272 271 269 265 261 258 255 253 253 250 248 245 242 242 239 236 234 233 231 229 227 226 225 224 223 223 223 223 223 223 223
295 294 294 294 292 288 283 281 279 278 277 275 272 270 268 266 263 260 257 255 253 250 248 246 243 241 240 237 236 235 233 232 230 228 227 226 226 225 225 225 225 225 225
300 298 297 296 295 293 290 285 282 281 279 278 274 271 268 266 264 262 259 257 253 251 249 248 245 242 240 239 239 238 237 234 232 230 229 228 228 228 227 227 227 227 227
305 303 303 302 300 298 296 293 288 284 282 279 276 273 271 268 266 264 261 259 256 252 250 248 247 244 243 241 239 238 238 236 234 233 232 229 229 229 229 228 229 230 229
313 311 310 309 307 304 301 297 294 290 286 283 280 276 273 271 268 266 264 261 258 254 251 249 248 246 243 241 240 240 238 237 236 236 234 231 229 230 230 229 229 230 231
322 319 318 316 313 310 306 302 299 296 293 289 284 281 277 274 271 268 266 263 260 257 253 251 249 247 244 242 241 240 239 238 238 236 235 233 232 231 231 231 231 230 231
329 326 324 322 319 314 310 307 303 300 297 293 288 285 281 277 274 270 267 264 261 258 254 252 250 248 245 243 242 241 240 239 238 236 235 234 234 232 232 232 232 231 231
334 332 329 326 323 319 314 310 306 303 300 296 292 288 284 281 276 272 268 265 263 260 256 253 251 249 247 244 243 242 241 240 238 237 236 235 235 234 233 233 233 233 232
338 335 332 329 326 323 319 315 311 307 303 299 295 291 287 284 280 275 271 267 264 262 259 256 253 250 248 246 244 243 241 240 239 238 236 235 235 235 235 234 234 234 234
340 337 334 331 328 326 322 319 316 311 307 304 300 295 291 287 283 279 274 270 266 263 260 259 255 251 249 247 245 243 242 241 239 238 236 234 235 235 235 236 235 235 235
338 336 334 331 329 327 325 323 320 316 312 308 304 299 294 291 288 284 279 274 269 264 261 259 257 253 250 248 246 244 243 242 240 238 237 235 236 235 235 235 235 236 236
335 334 333 332 331 329 327 325 323 319 316 312 308 304 299 295 292 288 283 278 273 268 263 260 259 256 252 249 246 244 243 243 241 240 239 238 237 236 236 236 235 235 236
334 333 333 332 331 330 328 327 325 322 319 316 312 308 303 299 295 291 286 281 276 271 266 261 259 257 255 251 248 245 243 242 241 241 240 239 238 237 236 235 235 236 236
333 332 332 331 330 330 329 327 325 323 320 318 315 311 307 302 298 294 289 284 279 275 269 263 259 257 256 254 250 247 244 243 242 241 240 240 239 237 236 235 235 235 236
330 330 330 330 329 329 329 327 326 323 321 319 316 313 310 306 301 297 292 287 282 278 273 267 261 258 256 255 252 248 246 244 242 241 239 239 238 237 237 237 236 235 235
328 329 329 328 328 328 328 327 326 323 321 319 317 315 311 308 304 299 295 290 286 281 276 271 265 260 257 255 253 250 247 244 243 241 240 239 238 238 237 237 236 235 234
326 326 326 326 326 327 327 326 325 323 322 320 318 316 313 310 305 301 297 293 289 285 279 274 269 264 259 257 254 251 248 245 243 242 240 239 238 237 237 237 236 235 234
323 323 324 324 324 325 325 325 325 323 321 320 319 317 314 311 307 303 300 295 291 287 282 277 272 266 261 258 255 252 249 246 244 242 240 239 238 237 236 236 235 235 235
322 322 322 322 323 324 324 324 324 323 322 321 319 317 315 312 309 306 302 298 294 289 285 280 275 268 262 259 256 253 250 247 244 243 241 239 239 238 236 235 235 235 236
319 320 321 321 322 322 323 322 323 322 322 321 320 318 316 313 311 308 305 301 296 292 287 283 278 271 264 260 258 254 250 247 244 243 241 239 238 238 236 236 236 236 236
317 319 320 320 321 321 321 321 321 322 321 320 320 319 317 314 312 309 306 303 299 294 289 285 280 274 266 260 258 255 252 248 245 242 241 239 238 237 237 236 236 235 235
Height
5870 5870 5870 5869 5868 5868 5868 5868 5869 5869 5870 5871 5872 5872 5873 5874 5876 5878 5879 5881 5882 5884 5885 5887 5889 5890 5892 5895 5897 5899 5901 5903 5905 5907 5909 5911 5912 5914 5915 5917 5918 5920 5921
5867 5867 5866 5866 5865 5865 5865 5865 5865 5865 5866 5866 5867 5868 5869 5870 5871 5873 5875 5877 5878 5879 5881 5883 5885 5886 5888 5891 5893 5896 5898 5901 5903 5905 5907 5909 5911 5912 5914 5916 5917 5919 5920
5864 5863 5863 5862 5862 5861 5861 5861 5861 5861 5862 5862 5863 5864 5865 5866 5867 5868 5870 5872 5873 5875 5876 5878 5880 5882 5884 5886 5889 5892 5895 5897 5900 5902 5904 5906 5908 5910 5912 5914 5916 5917 5919
5860 5860 5860 5859 5858 5858 5858 5858 5858 5858 5858 5858 5859 5859 5860 5861 5862 5863 5865 5867 5868 5870 5871 5873 5875 5877 5880 5882 5885 5888 5891 5893 5896 5898 5901 5903 5906 5908 5910 5912 5914 5916 5917
5857 5857 5856 5856 5855 5855 5855 5854 5854 5854 5854 5854 5854 5855 5855 5856 5857 5858 5860 5861 5863 5865 5866 5868 5870 5872 5875 5877 5880 5883 5885 5888 5891 5894 5897 5899 5902 5905 5907 5909 5911 5913 5915
5854 5853 5853 5852 5852 5851 5851 5851 5850 5850 5850 5850 5850 5850 5851 5851 5852 5853 5855 5856 5858 5859 5861 5862 5865 5867 5869 5872 5874 5877 5880 5883 5886 5889 5892 5895 5898 5900 5903 5905 5908 5910 5912
5851 5850 5849 5849 5848 5847 5847 5846 5846 5846 5845 5845 5845 5845 5846 5846 5847 5848 5849 5850 5852 5853 5855 5857 5859 5861 5864 5866 5869 5872 5875 5877 5881 5884 5887 5890 5893 5896 5899 5901 5904 5906 5908
5848 5847 5846 5845 5844 5844 5843 5842 5841 5841 5841 5840 5840 5840 5840 5841 5842 5842 5843 5844 5846 5847 5849 5850 5852 5855 5857 5860 5863 5865 5868 5871 5874 5877 5881 5884 5887 5891 5894 5897 5899 5902 5904
5845 5844 5843 5842 5841 5840 5839 5838 5837 5837 5836 5835 5835 5835 5835 5835 5835 5836 5837 5838 5839 5840 5842 5844 5846 5848 5850 5853 5856 5859 5861 5864 5868 5871 5874 5878 5881 5885 5888 5891 5894 5897 5900
5842 5841 5840 5839 5838 5836 5835 5834 5833 5832 5831 5830 5830 5829 5829 5829 5829 5829 5830 5831 5832 5833 5834 5836 5838 5840 5842 5845 5848 5851 5854 5857 5860 5864 5867 5870 5874 5878 5881 5885 5888 5891 5895
5840 5839 5837 5836 5834 5833 5831 5830 5828 5827 5826 5825 5824 5823 5822 5822 5822 5822 5822 5823 5824 5825 5827 5828 5830 5832 5835 5837 5840 5843 5846 5849 5852 5855 5859 5863 5866 5870 5874 5878 5882 5885 5888
5838 5836 5834 5833 5831 5829 5828 5826 5824 5822 5821 5819 5818 5817 5816 5815 5815 5815 5815 5815 5816 5817 5818 5820 5821 5824 5826 5828 5831 5834 5837 5840 5843 5847 5850 5854 5858 5862 5866 5870 5874 5878 5881
5835 5833 5832 5830 5828 5825 5823 5821 5819 5817 5815 5813 5811 5810 5809 5808 5807 5807 5807 5807 5807 5808 5809 5811 5812 5814 5817 5819 5822 5825 5828 5831 5835 5838 5842 5846 5850 5854 5858 5862 5866 5870 5874
5833 5831 5828 5826 5824 5821 5819 5816 5814 5811 5809 5807 5805 5803 5801 5800 5799 5799 5799 5798 5798 5798 5799 5801 5802 5804 5806 5809 5812 5815 5818 5822 5825 5828 5832 5837 5841 5845 5849 5853 5858 5862 5866
5830 5828 5825 5822 5819 5817 5814 5811 5808 5805 5802 5800 5798 5795 5794 5792 5791 5790 5789 5789 5790 5790 5790 5790 5792 5794 5796 5798 5801 5804 5808 5811 5815 5819 5823 5827 5831 5835 5840 5844 5848 5853 5857
5827 5824 5821 5818 5815 5812 5809 5806 5802 5799 5796 5793 5791 5788 5786 5784 5782 5781 5780 5779 5779 5780 5780 5780 5780 5782 5785 5787 5790 5793 5797 5800 5804 5808 5812 5816 5820 5825 5830 5834 5838 5843 5848
5823 5820 5817 5814 5811 5807 5804 5800 5797 5793 5790 5787 5783 5780 5777 5775 5773 5771 5770 5769 5769 5769 5770 5770 5769 5770 5773 5776 5779 5782 5785 5789 5793 5796 5800 5805 5809 5814 5819 5824 5828 5833 5838
5819 5816 5813 5810 5806 5802 5799 5795 5791 5787 5783 5779 5776 5772 5769 5766 5764 5762 5760 5759 5758 5758 5759 5759 5759 5759 5761 5763 5766 5770 5773 5777 5781 5784 5789 5793 5798 5803 5808 5813 5818 5823 5828
5815 5812 5809 5805 5801 5797 5793 5789 5785 5781 5777 5772 5768 5765 5761 5758 5755 5753 5751 5749 5748 5747 5747 5748 5748 5748 5749 5751 5754 5757 5761 5765 5768 5772 5776 5781 5786 5791 5797 5802 5807 5812 5817
5811 5808 5804 5800 5796 5792 5788 5784 5779 5775 5770 5766 5761 5757 5753 5750 5746 5744 5741 5739 5737 5736 5736 5736 5737 5737 5738 5739 5742 5745 5748 5752 5756 5760 5765 5769 5774 5779 5785 5790 5796 5801 5806
5807 5803 5799 5795 5791 5787 5782 5778 5773 5768 5764 5759 5754 5750 5746 5742 5738 5735 5732 5729 5727 5726 5725 5724 5725 5725 5726 5727 5729 5732 5735 5739 5743 5747 5752 5757 5762 5767 5772 5777 5783 5789 5794
5802 5798 5794 5790 5786 5781 5777 5772 5767 5762 5757 5752 5747 5742 5738 5734 5730 5726 5723 5720 5717 5715 5714 5713 5713 5713 5714 5715 5716 5719 5722 5726 5731 5735 5739 5744 5748 5754 5759 5765 5771 5776 5782
5796 5793 5788 5784 5780 5775 5770 5765 5760 5755 5750 5745 5740 5735 5730 5725 5721 5717 5714 5710 5707 5705 5703 5702 5701 5701 5701 5702 5704 5706 5709 5712 5717 5720 5725 5731 5735 5741 5746 5752 5758 5764 5770
5790 5786 5782 5778 5773 5769 5764 5759 5753 5748 5743 5738 5732 5727 5722 5717 5712 5708 5704 5700 5697 5694 5692 5691 5690 5689 5688 5689 5691 5693 5695 5699 5704 5707 5711 5717 5722 5727 5733 5738 5744 5751 5757
5784 5780 5776 5771 5766 5762 5757 5751 5746 5741 5735 5730 5724 5719 5714 5708 5703 5699 5695 5691 5687 5684 5681 5679 5678 5677 5676 5677 5678 5680 5683 5686 5690 5694 5698 5704 5709 5713 5719 5726 5731 5737 5744
5777 5773 5769 5764 5759 5754 5749 5744 5738 5733 5727 5722 5716 5711 5705 5700 5695 5690 5685 5681 5677 5674 5670 5668 5666 5665 5665 5665 5666 5668 5670 5673 5677 5681 5685 5690 5695 5700 5707 5713 5718 5725 5731